Boigu Airport


Codes: YBOI/GIC
Name: Boigu Airport
City:
Country: Australia
Elevation: 23 ft.
Wikipedia:

Photos at Boigu Airport


   Photos courtesy of SpottingLog. You can add your own sightings and photos by signing up for a free trial today.



No photos found.

Weather at Boigu Airport


Time (UTC)DescriptionTempratureWindCloud coverageVisibilityPressureHumidity
15-Apr-2024 15:00Light Rain28°C13 mph, E17%10000m1009hPa84%
15-Apr-2024 18:00Moderate Rain28°C9 mph, E30%10000m1009hPa85%
15-Apr-2024 21:00Light Rain28°C9 mph, E41%9095m1010hPa85%
16-Apr-2024 00:00Light Rain29°C4 mph, E59%10000m1011hPa75%
16-Apr-2024 03:00Light Rain29°C9 mph, SE83%10000m1008hPa76%
16-Apr-2024 06:00Light Rain29°C11 mph, SE84%10000m1006hPa75%
16-Apr-2024 09:00Broken Clouds29°C16 mph, SE60%10000m1008hPa81%
16-Apr-2024 12:00Broken Clouds29°C16 mph, SE77%10000m1009hPa83%
16-Apr-2024 15:00Light Rain28°C18 mph, SE91%10000m1008hPa85%
16-Apr-2024 18:00Moderate Rain28°C18 mph, SE96%10000m1007hPa85%
16-Apr-2024 21:00Moderate Rain28°C18 mph, E100%10000m1008hPa85%
17-Apr-2024 00:00Moderate Rain29°C13 mph, E100%10000m1009hPa81%
17-Apr-2024 03:00Light Rain29°C9 mph, E85%10000m1007hPa78%
17-Apr-2024 06:00Light Rain29°C16 mph, SE74%10000m1005hPa79%
17-Apr-2024 09:00Light Rain29°C16 mph, SE100%10000m1007hPa80%
17-Apr-2024 12:00Light Rain28°C18 mph, SE100%10000m1008hPa81%
17-Apr-2024 15:00Moderate Rain27°C20 mph, SE100%7200m1007hPa86%
17-Apr-2024 18:00Heavy Intensity Rain26°C18 mph, SE100%1584m1004hPa93%
17-Apr-2024 21:00Very Heavy Rain26°C16 mph, SE100%1520m1006hPa95%
18-Apr-2024 00:00Heavy Intensity Rain26°C22 mph, SE100%4764m1007hPa94%
18-Apr-2024 03:00Moderate Rain27°C9 mph, SE100%10000m1005hPa88%
18-Apr-2024 06:00Moderate Rain27°C9 mph, NW100%10000m1004hPa88%
18-Apr-2024 09:00Light Rain27°C7 mph, NW100%10000m1005hPa87%
18-Apr-2024 12:00Light Rain26°C11 mph, N100%10000m1007hPa91%
18-Apr-2024 15:00Light Rain26°C11 mph, N100%10000m1006hPa92%
18-Apr-2024 18:00Light Rain26°C11 mph, N100%10000m1006hPa90%
18-Apr-2024 21:00Overcast Clouds26°C11 mph, N100%10000m1007hPa91%
19-Apr-2024 00:00Overcast Clouds27°C11 mph, N100%10000m1009hPa84%
19-Apr-2024 03:00Overcast Clouds30°C9 mph, NW100%10000m1006hPa70%
19-Apr-2024 06:00Overcast Clouds29°C11 mph, NW100%10000m1005hPa73%
19-Apr-2024 09:00Light Rain29°C7 mph, W100%10000m1007hPa76%
19-Apr-2024 12:00Moderate Rain28°C4 mph, NW100%9937m1009hPa82%
19-Apr-2024 15:00Moderate Rain27°C9 mph, NW100%9872m1008hPa86%
19-Apr-2024 18:00Moderate Rain26°C11 mph, N100%10000m1008hPa90%
19-Apr-2024 21:00Light Rain26°C13 mph, N97%10000m1009hPa91%
20-Apr-2024 00:00Light Rain27°C11 mph, N89%10000m1010hPa84%
20-Apr-2024 03:00Broken Clouds31°C4 mph, NW62%10000m1007hPa69%
20-Apr-2024 06:00Light Rain30°C9 mph, SW61%10000m1006hPa74%
20-Apr-2024 09:00Light Rain29°C2 mph, S77%10000m1008hPa78%
20-Apr-2024 12:00Moderate Rain28°C7 mph, E88%10000m1009hPa83%